Lapse_Rate
5.0 5.2 5.0 4.8 4.8 4.7 4.6 4.6 4.4 4.3 4.2 4.4 4.5 4.4 4.9 5.6 5.9 6.1 6.4 6.7 6.8 6.8 6.7 6.6 6.4 6.5 6.5 6.0 5.7 6.2 5.7 6.2 6.9 7.8 7.9 8.1 7.2 7.1 7.3 7.4 8.0 8.0 7.6 7.6 7.6
5.4 5.2 5.0 4.8 4.8 4.7 4.7 4.7 4.4 4.3 4.3 4.5 4.6 4.5 5.0 5.5 5.9 6.2 6.4 6.6 6.8 6.8 6.5 6.6 6.4 6.4 6.5 6.1 6.0 5.7 6.1 6.9 7.6 7.9 7.7 8.1 7.3 7.1 7.0 7.4 8.0 8.2 7.8 7.9 7.6
5.4 5.2 5.0 5.0 4.8 4.8 4.7 4.7 4.5 4.4 4.4 4.6 4.7 4.7 5.1 5.5 5.7 5.9 6.3 6.5 6.5 6.7 6.5 6.5 6.5 6.4 6.4 6.3 6.3 6.0 6.2 7.1 6.8 6.7 6.8 6.5 6.4 6.7 7.1 7.0 7.9 8.1 7.9 8.0 7.9
5.5 5.2 5.1 4.9 4.8 4.8 4.6 4.6 4.6 4.5 4.5 4.7 4.8 5.0 5.3 5.5 5.1 5.6 6.1 6.4 6.4 6.5 6.4 6.5 6.5 6.3 6.4 6.4 6.6 6.4 6.2 6.4 6.4 6.3 6.8 6.6 6.4 6.9 7.3 7.0 7.1 7.6 8.0 8.1 8.0
5.7 5.5 5.2 5.0 4.9 4.7 4.7 4.6 4.6 4.6 4.6 4.6 4.8 5.1 5.5 5.4 5.3 5.5 5.9 6.2 6.3 6.5 6.4 6.2 6.3 6.3 6.2 6.3 6.4 6.4 6.7 6.2 5.9 6.4 6.7 6.7 6.7 6.7 7.1 6.7 7.1 7.1 7.7 7.9 8.0
5.9 5.7 5.4 5.3 5.0 4.8 4.7 4.7 4.5 4.5 4.7 4.8 4.8 5.0 5.2 5.5 6.0 5.6 5.8 6.1 6.2 6.3 6.4 6.3 6.3 6.0 6.3 6.4 6.4 6.4 6.4 6.4 6.1 6.2 6.6 6.5 6.7 6.8 7.3 6.6 6.9 7.2 7.5 7.7 7.9
6.0 5.9 5.6 5.4 5.1 5.0 4.9 4.8 4.6 4.6 4.7 4.8 4.9 5.1 5.2 5.5 6.3 6.1 5.9 5.9 5.9 6.1 6.1 6.2 6.2 6.3 6.3 6.3 6.4 6.4 6.3 6.5 6.4 6.6 6.7 6.5 6.7 6.6 6.9 7.2 7.0 6.7 6.3 7.0 7.5
6.0 5.8 5.7 5.7 5.5 5.3 5.2 5.0 4.9 4.8 4.9 4.9 5.0 5.0 5.2 5.4 5.8 6.4 6.0 5.7 5.5 5.7 6.1 6.2 6.1 6.4 6.4 6.6 6.7 6.7 6.6 7.0 7.3 7.0 6.6 6.6 6.6 6.7 6.8 7.2 6.8 6.8 6.4 6.9 7.1
6.1 6.0 5.9 5.9 5.8 5.6 5.4 5.3 5.0 5.0 4.9 5.0 5.0 4.9 4.9 5.4 5.7 6.0 6.2 6.0 5.5 5.5 5.9 6.2 6.2 6.4 6.4 6.3 6.5 6.6 7.2 7.4 7.7 7.1 7.1 6.7 6.7 7.5 6.8 7.3 7.2 6.9 7.2 6.5 6.8
6.3 6.2 6.2 6.1 6.0 5.8 5.7 5.5 5.2 5.1 5.0 5.1 5.0 4.8 4.9 5.0 5.5 5.8 6.0 6.2 5.9 5.5 5.7 6.2 6.3 6.1 6.4 6.2 6.6 6.8 7.1 7.5 7.6 7.4 7.1 7.0 6.8 7.0 6.8 7.1 7.3 7.2 7.0 7.2 6.7
6.4 6.4 6.4 6.2 6.2 6.0 5.9 5.7 5.6 5.6 5.2 5.0 5.2 5.1 4.7 5.0 5.2 5.8 5.8 5.8 6.1 5.7 5.8 5.9 6.1 6.4 6.2 6.3 6.4 6.7 6.8 6.9 6.9 7.6 7.2 7.1 7.3 7.0 6.6 6.9 7.2 7.1 7.0 7.1 6.8
6.6 6.5 6.5 6.4 6.2 6.2 6.0 5.9 5.6 5.6 5.7 5.4 5.5 5.2 5.0 5.0 5.2 5.3 5.8 5.7 5.7 5.3 5.4 5.5 6.0 6.4 6.4 6.7 6.7 6.3 6.9 7.1 7.3 7.2 6.9 7.6 7.5 7.3 6.9 6.9 7.2 7.3 7.0 6.8 6.5
6.6 6.6 6.5 6.5 6.5 6.4 6.2 6.0 5.7 5.3 5.4 5.9 5.8 5.4 5.2 4.9 5.3 5.2 5.4 5.6 5.6 5.3 5.4 5.5 5.9 6.1 6.3 6.2 6.4 6.5 6.5 7.2 7.2 7.0 7.0 7.4 7.9 7.9 7.2 6.9 7.1 7.3 7.1 6.8 5.9
6.6 6.6 6.4 6.4 6.3 6.5 6.3 6.1 5.9 5.5 5.2 5.8 5.9 5.7 5.5 5.2 5.2 5.4 5.3 5.5 5.7 5.1 5.9 5.6 5.5 5.7 5.5 6.0 6.3 6.8 6.8 6.5 6.7 6.9 7.2 7.5 8.0 7.8 7.4 7.0 7.1 7.2 7.2 7.2 6.6
6.5 6.4 6.5 6.5 6.2 6.3 6.2 6.0 5.9 5.5 5.1 6.1 6.0 6.0 5.8 5.5 5.3 5.5 5.4 5.4 5.3 5.0 5.5 5.7 5.7 5.6 5.6 6.0 6.1 6.3 6.6 6.6 6.6 6.8 6.9 7.1 7.5 7.4 7.8 7.5 7.1 7.2 7.3 7.5 7.3
7.1 6.9 6.5 6.5 6.4 6.3 6.2 6.2 5.9 5.4 5.1 6.4 6.3 6.3 6.0 5.7 5.6 5.5 5.4 5.4 5.5 5.5 5.6 5.7 6.0 5.8 5.7 5.8 6.0 6.0 6.6 6.5 6.5 6.6 6.7 7.4 7.4 7.3 7.8 7.7 7.4 7.0 7.3 7.5 7.4
7.0 6.9 6.9 6.7 6.7 6.4 6.3 6.1 6.1 5.6 6.6 6.4 6.3 6.2 6.1 5.8 5.7 5.7 5.6 5.5 5.5 5.2 5.4 5.2 5.7 6.1 6.0 5.8 6.0 6.1 6.5 6.7 6.7 6.7 7.2 7.3 6.8 6.8 7.7 7.7 7.4 7.4 7.1 7.5 7.4
6.9 7.0 6.8 6.8 6.8 6.8 6.4 5.9 5.6 7.0 7.0 6.8 6.5 6.1 5.9 6.0 5.9 5.7 5.6 5.6 5.5 5.4 5.1 5.5 5.7 6.1 6.2 5.9 6.0 6.1 6.3 7.0 7.4 7.3 7.7 6.9 6.7 6.9 7.4 7.1 7.1 7.5 7.4 7.5 7.6
6.3 6.6 6.9 6.7 6.8 6.7 6.5 6.2 6.6 6.8 6.8 6.6 6.4 6.4 6.1 6.3 5.9 5.8 5.8 5.7 5.4 6.0 5.5 5.7 6.2 6.0 5.9 5.9 6.1 6.2 6.1 6.7 7.0 7.2 7.5 7.5 7.2 7.2 7.3 7.2 7.2 7.4 7.4 7.1 7.5
6.6 6.3 6.6 6.5 6.5 6.5 6.5 6.6 6.7 6.8 6.5 6.3 6.4 6.4 6.0 6.1 5.9 5.9 5.9 6.2 6.3 6.1 5.7 5.6 5.7 5.9 5.8 5.7 5.8 6.2 6.4 6.6 6.6 7.0 7.6 8.0 7.9 7.5 7.6 7.4 7.2 7.5 7.5 7.7 7.8
6.4 6.3 6.7 6.6 6.2 6.2 6.1 6.8 7.0 6.9 6.5 6.2 6.4 6.3 6.4 6.1 6.2 5.5 6.1 6.4 6.4 6.3 6.0 5.6 5.6 5.4 5.6 5.9 5.8 6.0 6.1 6.5 6.6 7.3 7.9 8.0 8.2 7.7 7.4 7.4 7.3 7.5 7.6 7.7 7.8
6.3 5.9 6.2 6.6 6.2 5.9 6.3 6.7 6.9 6.9 6.7 6.2 6.1 6.3 6.3 5.9 6.0 6.0 6.1 6.1 6.4 6.3 6.0 6.0 5.3 5.7 5.8 5.8 6.1 6.0 6.2 6.5 6.8 7.3 7.4 7.3 7.2 7.7 7.5 7.4 7.4 7.4 7.7 7.9 8.0
5.5 5.6 6.0 6.0 5.6 6.2 6.4 6.5 6.6 6.7 6.9 6.3 6.3 6.4 6.5 6.3 6.0 6.2 6.1 6.6 6.3 6.1 6.0 5.9 5.3 5.7 6.0 5.7 5.9 6.0 6.3 6.3 6.8 6.7 6.8 7.4 7.4 8.3 8.2 7.6 7.5 7.9 8.0 8.1 8.1
4.2 4.5 4.6 5.7 6.1 6.4 6.4 6.5 6.5 6.8 6.8 6.6 6.3 6.3 6.4 6.4 6.4 6.0 6.1 6.3 6.3 6.1 5.9 5.7 5.6 5.9 6.8 6.3 6.1 6.0 6.5 6.1 6.3 6.5 7.2 6.8 7.4 8.2 8.3 8.1 7.8 8.3 8.2 8.1 8.1
3.6 3.5 4.0 4.5 5.6 6.2 6.8 6.1 6.4 6.6 6.8 6.6 6.1 6.3 6.3 5.9 6.3 6.0 6.4 6.3 6.1 6.1 5.9 5.3 5.4 5.6 5.7 5.8 5.8 6.1 6.1 6.2 5.9 6.8 6.8 7.5 7.4 8.0 7.9 8.0 7.8 8.0 7.9 8.1 8.0
3.7 3.7 3.5 4.5 5.1 5.8 6.6 6.2 6.8 7.3 7.0 6.6 6.3 6.4 5.9 5.8 6.6 6.2 5.7 6.1 6.2 6.1 5.6 5.8 5.1 5.4 5.9 6.2 5.8 5.9 6.2 6.0 5.9 6.3 6.3 6.6 6.6 7.9 7.7 7.6 7.6 7.4 7.7 7.8 7.7
4.4 4.1 4.5 4.0 5.0 5.7 5.7 6.6 7.0 7.6 7.2 7.0 6.3 6.3 5.9 6.3 6.2 6.0 5.7 5.7 5.4 5.7 5.9 5.6 5.6 5.1 5.6 6.0 5.9 5.2 7.4 6.9 7.0 6.4 6.8 6.2 7.8 7.0 6.6 7.0 7.3 7.3 7.5 7.5 7.7
Wind_Speed
12 13 13 13 14 13 13 13 12 11 11 12 10 6 3 5 9 4 6 9 9 13 9 9 7 6 9 10 6 6 8 14 23 21 18 15 14 3 2 13 7 6 3 19 24
12 13 13 13 13 13 13 13 11 10 10 11 6 4 4 8 9 3 10 14 14 14 7 7 10 6 6 9 8 9 10 15 14 14 16 11 14 10 6 11 11 9 12 23 25
12 13 12 12 13 13 13 13 12 9 8 9 8 7 8 10 10 4 15 15 13 10 7 6 5 6 8 6 10 10 13 11 3 10 10 11 10 10 9 16 13 18 22 25 24
12 12 13 12 12 13 13 12 13 9 7 8 11 9 7 9 5 7 16 14 11 7 6 4 6 6 4 7 9 7 9 12 1 4 9 9 10 14 13 9 7 16 22 25 26
12 13 14 14 13 13 14 13 13 12 8 8 10 9 5 6 5 10 14 11 6 3 3 4 7 7 6 2 5 8 10 8 11 8 10 11 12 13 14 3 10 19 21 24 22
14 14 14 15 15 15 15 15 14 13 10 7 8 10 9 4 6 10 10 9 6 4 1 2 5 6 5 4 5 7 6 11 11 13 11 12 11 7 12 6 7 14 20 21 20
16 15 14 14 15 16 16 16 15 12 9 7 6 6 5 7 3 7 8 6 5 5 3 2 4 6 2 3 2 6 10 11 14 16 12 9 13 12 5 8 17 18 18 20 16
17 16 15 15 16 16 16 16 17 10 5 5 5 6 3 1 5 2 5 5 4 2 3 3 5 4 1 0 2 7 12 11 13 18 15 4 17 17 8 10 16 21 16 14 19
21 18 17 16 16 17 18 18 11 7 5 4 5 5 1 4 2 4 2 3 5 3 1 2 4 2 3 2 3 5 9 10 8 13 15 15 13 11 8 9 11 15 15 14 13
23 19 16 15 15 16 19 14 5 3 4 4 4 5 3 2 1 2 0 2 2 4 3 4 3 5 3 4 2 8 9 9 9 10 18 20 16 5 6 8 11 11 13 12 13
24 22 18 16 16 15 10 4 4 5 6 7 5 3 2 1 2 3 0 3 3 6 7 1 6 6 1 9 9 8 7 10 15 2 11 23 20 19 8 7 11 12 12 13 14
25 24 20 17 17 9 5 4 4 3 8 6 6 5 2 1 4 3 2 2 2 5 4 6 9 1 2 5 7 8 9 12 10 4 7 17 24 20 10 9 13 12 14 12 11
24 26 21 16 16 5 4 3 3 4 5 3 5 5 2 5 3 2 3 1 2 2 4 9 3 4 7 8 9 10 11 11 7 4 10 11 20 23 19 11 11 12 13 12 14
25 26 22 20 4 3 1 2 3 3 4 5 5 3 5 3 4 2 2 4 4 3 2 5 4 7 8 9 7 9 6 11 10 6 7 11 9 21 23 15 14 15 15 16 18
22 24 18 9 6 3 3 2 2 3 4 4 4 3 2 5 2 6 2 3 6 2 3 0 3 6 9 9 6 7 5 8 10 9 9 12 7 19 22 24 19 17 18 20 21
25 25 17 3 3 2 1 2 3 1 6 4 4 4 5 7 4 4 4 3 2 4 6 7 1 3 6 3 7 5 7 5 3 4 6 14 11 10 17 25 24 19 18 19 21
24 24 11 5 1 1 2 3 2 4 2 4 4 4 6 5 6 7 7 7 5 3 5 4 9 4 5 7 5 8 7 3 4 5 7 2 4 14 11 17 20 22 18 18 20
28 20 2 4 2 3 3 3 6 3 5 2 2 3 6 5 6 7 5 9 14 9 3 4 3 10 11 6 4 10 7 3 6 5 8 6 8 11 11 15 5 13 17 18 19
25 3 3 3 4 3 4 3 5 2 2 6 4 4 5 6 4 6 9 10 5 15 8 3 3 4 5 5 3 6 7 2 6 3 4 8 12 18 9 9 10 12 8 12 19
9 4 5 3 4 4 5 6 5 1 1 3 7 9 5 7 6 6 6 4 5 10 6 1 4 5 5 4 9 7 4 4 4 4 6 8 11 6 7 15 15 13 13 15 13
5 5 4 5 4 5 5 8 5 5 6 6 7 6 9 5 10 5 6 4 8 10 8 4 5 4 3 10 12 7 5 7 3 7 5 6 4 2 6 13 12 12 12 10 10
4 5 4 5 5 5 9 6 0 6 6 6 6 11 10 7 7 8 7 6 8 10 7 8 4 7 12 3 5 11 16 16 7 7 6 6 8 5 3 4 2 3 2 3 6
4 8 3 5 7 11 10 7 6 8 8 8 7 10 6 5 6 12 5 2 10 11 7 7 6 3 3 4 5 8 13 13 15 6 11 7 5 4 3 1 1 2 4 3 3
3 5 5 6 11 10 15 14 10 7 8 8 5 7 8 9 12 5 7 5 9 9 2 4 6 9 6 3 2 5 13 18 15 8 13 17 15 18 13 8 5 6 8 8 4
4 8 9 8 10 18 15 9 12 9 8 10 6 15 10 7 11 12 13 6 8 8 6 6 8 13 17 17 13 14 13 16 19 23 14 19 17 18 16 11 7 6 9 9 5
7 3 6 12 8 13 17 13 20 17 10 7 12 13 16 13 15 10 8 11 9 13 12 7 5 4 6 14 14 17 18 20 20 22 24 23 26 22 19 15 12 10 9 10 9
7 4 5 11 16 14 17 19 18 14 11 16 12 14 16 19 17 15 7 5 7 10 15 8 6 4 6 2 7 11 21 24 22 21 21 19 23 17 13 9 8 8 6 7 7
Wind_Direction
347 339 340 341 337 339 342 342 342 339 350 348 1 40 48 343 292 277 22 333 315 320 295 265 235 250 256 211 247 240 233 229 225 236 224 203 195 222 254 140 164 173 182 137 157
339 336 338 338 333 337 337 337 331 338 349 346 338 332 334 333 302 343 2 334 334 332 279 255 228 221 223 206 197 221 228 229 230 220 263 246 208 187 188 171 172 152 111 140 155
337 333 333 333 330 332 332 333 328 337 339 350 346 306 295 307 280 33 353 338 327 314 288 277 269 239 233 270 212 214 243 245 296 7 338 302 254 173 225 197 188 176 146 157 158
338 333 332 329 328 327 327 327 325 325 321 320 334 324 282 287 321 11 343 333 322 306 287 256 234 234 230 235 211 251 229 268 329 347 333 312 312 220 224 210 255 164 158 161 167
339 335 329 326 323 324 322 322 321 318 314 309 328 314 278 288 1 350 335 328 295 285 318 288 252 241 255 260 281 232 259 242 254 272 296 304 270 253 220 61 333 142 164 171 171
342 334 327 324 322 324 320 318 318 314 304 300 327 310 321 25 352 332 336 318 341 293 238 301 317 304 301 279 280 323 283 250 247 249 277 289 287 226 233 135 164 153 175 175 174
341 329 325 324 322 322 320 316 316 307 295 282 307 307 292 9 344 339 320 322 328 332 297 353 328 246 280 265 292 298 279 228 233 240 241 312 267 227 206 180 169 164 188 176 171
345 333 328 324 319 317 315 313 313 294 263 274 279 287 328 52 339 332 335 321 330 331 339 347 326 275 279 135 269 254 248 260 227 220 223 244 250 219 166 194 192 182 173 180 177
351 343 334 327 322 318 312 312 301 286 242 237 257 291 2 154 276 18 9 339 314 275 193 252 274 314 186 202 355 261 268 252 229 206 213 214 243 230 170 199 205 193 185 169 183
352 344 334 326 322 319 312 300 287 239 224 244 261 253 179 358 4 346 57 309 295 275 235 224 232 238 189 216 237 260 255 275 265 197 227 223 233 173 191 223 207 211 194 179 179
353 347 335 326 324 317 312 244 228 206 220 273 318 288 282 90 243 186 316 283 238 248 259 212 252 233 171 215 275 287 259 262 269 194 234 223 229 237 186 210 232 207 202 189 192
347 345 339 329 326 322 278 265 33 355 292 214 248 266 247 274 266 206 237 267 269 241 241 247 247 52 260 248 243 257 273 263 259 260 249 239 227 234 210 225 229 205 202 199 185
345 344 337 328 323 287 350 25 339 314 263 179 213 255 230 212 268 188 244 236 287 263 264 272 31 316 244 220 227 231 243 266 255 294 251 264 237 229 233 228 210 228 207 200 188
343 344 339 325 294 354 26 31 330 316 275 176 194 176 167 233 237 128 211 299 216 304 301 290 341 286 253 241 235 254 250 253 273 289 249 214 237 226 229 211 215 209 210 202 203
339 343 338 336 317 300 31 321 308 249 299 134 155 93 161 230 25 173 163 206 277 237 219 159 283 272 249 242 226 239 318 263 241 260 286 248 245 250 219 225 215 215 210 210 205
335 337 328 234 255 19 244 241 252 270 255 176 160 201 208 208 203 137 198 213 316 263 229 275 117 250 290 282 245 310 264 203 211 244 246 240 225 250 237 219 219 220 208 203 204
330 328 308 299 348 137 263 240 324 225 91 179 233 202 232 221 219 206 206 207 213 216 228 204 221 194 227 255 212 224 235 177 207 207 241 87 216 244 247 222 232 225 204 203 198
327 322 220 272 246 193 207 258 242 236 192 133 162 215 238 183 233 214 244 249 222 236 277 237 232 201 184 238 249 212 224 259 241 214 233 170 242 236 246 246 248 274 210 198 202
325 315 260 167 197 229 228 201 259 259 145 173 173 210 216 216 242 219 230 244 246 201 204 215 231 157 205 197 236 206 228 306 300 235 269 220 241 257 247 236 224 229 232 220 201
323 295 241 149 190 227 225 240 248 238 182 227 211 197 227 180 207 207 226 203 206 200 222 19 263 205 145 205 226 247 349 209 214 260 251 253 246 250 254 224 221 217 209 222 223
286 286 112 159 211 217 232 239 245 194 201 231 255 233 232 210 218 220 268 168 204 178 204 254 220 141 209 212 201 193 225 219 272 245 272 287 285 163 256 252 236 210 206 203 204
297 261 132 171 202 225 236 228 330 209 190 240 282 265 248 192 220 218 232 235 182 168 188 212 259 231 234 202 262 265 229 225 229 216 238 283 264 295 287 309 234 294 267 220 227
267 276 154 209 230 225 245 253 239 204 201 188 221 231 246 238 235 220 210 143 186 193 194 178 226 236 200 213 211 230 224 243 235 255 249 244 254 106 123 76 2 185 219 263 236
268 266 185 209 252 257 244 249 235 216 231 209 237 206 207 231 233 260 221 179 193 217 84 184 247 241 255 25 6 209 222 219 223 238 238 241 261 265 267 272 238 263 281 294 266
216 236 266 223 230 228 234 248 234 225 222 211 213 224 207 237 232 231 237 192 193 186 203 225 248 244 259 270 257 260 258 228 224 235 243 253 251 261 253 268 302 290 277 274 262
234 225 208 266 263 225 217 228 227 228 196 209 232 241 226 232 232 269 235 211 214 183 193 212 254 274 261 254 255 251 249 249 236 238 245 258 269 266 274 279 275 264 248 257 272
211 220 263 236 233 232 225 226 233 235 229 239 241 246 248 238 254 281 284 286 252 185 194 188 225 228 262 144 264 260 239 231 237 232 234 242 244 270 275 252 269 273 257 251 264